Location: Brenner
(47.0000°N, 11.5000°E)
Time: 07:05:23
(UTC+00:00)

Daily predictions for brighter satellites

Satellite Brightness Start Highest point End
(mag) Time Altitude Azimuth Time Altitude Azimuth Time Altitude Azimuth
FengYun 1-2 T 4.4 16:27:05 10° SE 16:32:35 56° ENE 16:38:05 10° N
Cosmos 1110 Rocket 4.1 16:28:31 10° S 16:33:40 60° ESE 16:38:49 10° NNE
Lacrosse 5 3.2 16:34:27 10° WNW 16:38:53 30° NNW 16:43:20 10° NE
Timation 2 Rocket 4.2 16:33:32 10° NNW 16:40:06 65° ENE 16:46:52 10° SE
Cosmos 1825 Rocket 3.5 16:36:31 10° N 16:40:59 70° E 16:45:23 10° SSE
Envisat 3.8 16:37:51 10° S 16:42:51 58° W 16:47:53 10° NNW
Cosmos 292 Rocket 4.0 16:38:21 10° S 16:42:58 49° ESE 16:47:37 10° NNE
Aureole 3 4.0 16:41:17 10° SE 16:43:38 20° E 16:45:55 10° NE
ADEOS Rocket 3.6 16:37:25 10° N 16:43:48 75° WNW 16:50:53 10° SSW
Okean O Rocket 1.8 16:40:35 10° S 16:44:56 78° WSW 16:49:20 10° NNW
FALCON 9 DEB 4.5 16:42:46 10° WNW 16:45:48 28° N 16:48:51 10° ENE
Meteor 2-21 Rocket 4.5 16:39:39 10° N 16:45:50 66° ENE 16:51:54 10° SSE
YAOGAN 1 3.8 16:43:49 10° ESE 16:47:02 21° ENE 16:50:14 10° NNE
USA 281 3.5 16:41:10 10° SSE 16:47:43 78° WSW 16:54:20 10° NNW
FALCON 9 DEB 3.4 16:45:05 10° SW 16:48:12 47° SE 16:51:05 12° ENE
FALCON 9 DEB 3.2 16:49:19 10° SW 16:52:27 54° SE 16:55:10 13° ENE
Feng Yun 1-1 Rocket 4.4 16:47:26 10° SSE 16:53:15 64° ENE 16:59:08 10° N
CZ-2C R/B 4.1 16:48:23 10° ESE 16:53:18 30° ENE 16:58:06 10° N
SMAP 3.6 16:49:13 10° S 16:53:50 64° WSW 16:58:29 10° NNW
Cosmos 2219 3.4 16:49:42 10° NNW 16:55:23 55° ENE 17:01:01 10° SE
Cosmos 1455 3.9 16:54:19 10° ESE 16:56:02 13° E 16:56:09 13° E
Cosmos 1726 Rocket 3.5 16:52:39 10° S 16:56:56 62° E 17:01:16 10° NNE
Cosmos 1758 Rocket 4.3 16:55:23 10° NNW 16:59:44 57° W 17:03:59 10° S
Cosmos 1553 Rocket 4.4 16:54:06 10° SSE 16:59:55 39° E 17:05:39 10° NNE
USA 307 3.6 16:57:26 10° NW 17:01:31 40° NNE 17:04:41 15° E
Meteor 2-10 Rocket 4.4 16:58:35 10° SE 17:02:53 26° E 17:07:04 10° NE
Cosmos 2082 4.5 16:58:47 10° NNW 17:03:52 32° NE 17:08:49 11° ESE
Cosmos 2228 3.1 16:59:45 10° S 17:04:00 83° W 17:08:18 10° N
FALCON 9 DEB 3.0 17:01:12 10° SW 17:04:25 64° SSE 17:06:44 17° ENE
Cosmos 1939 Rocket 2.9 17:00:55 10° SSE 17:04:47 55° ENE 17:08:38 10° N
CZ-4B R/B 1.4 17:02:26 10° N 17:05:41 79° WNW 17:08:49 10° SSW
USA 308 3.5 17:02:16 10° NW 17:06:22 41° NNE 17:09:20 17° E
ATLAS 5 CENTAUR R/B 4.0 17:05:34 10° WNW 17:08:22 16° NNW 17:11:25 10° NNE
Helios 1A Rocket 3.1 17:08:01 10° SE 17:11:58 47° ENE 17:15:55 10° N
Cosmos 1606 Rocket 3.8 17:08:12 10° SSW 17:12:33 72° W 17:16:59 10° N
FALCON 9 DEB 2.8 17:12:51 10° WSW 17:16:04 84° SE 17:17:56 23° ENE
ARGOS 4.2 17:13:10 13° ESE 17:16:50 25° ENE 17:21:12 10° N
Okean-O 2.8 17:14:09 10° SE 17:18:25 50° ENE 17:22:43 10° N
SKYMED 2 3.5 17:15:32 10° NNE 17:19:52 65° ESE 17:24:11 10° S
Cosmos 1689 Rocket 1.9 17:18:14 10° NNE 17:21:06 61° ESE 17:23:58 10° S
Cosmos 1656 3.8 17:16:13 10° S 17:21:36 53° ESE 17:27:05 10° NE
SL-08 R/B 4.4 17:15:50 10° N 17:21:58 63° ENE 17:28:01 10° SSE
Cosmos 1400 Rocket 2.7 17:20:11 10° S 17:24:17 75° E 17:28:22 10° NNE
Cosmos 1745 Rocket 4.2 17:19:03 10° N 17:25:09 49° ENE 17:31:16 10° SSE
H-2A R/B 2.6 17:21:19 10° SE 17:26:17 38° ENE 17:31:17 10° N
PSLV R/B 3.9 17:23:59 10° NNE 17:28:10 65° ESE 17:32:16 10° S
GEOS 3 Rocket 4.1 17:24:33 18° ESE 17:28:11 46° NE 17:33:20 10° NNW
CZ-4 R/B 1.3 17:24:57 10° SSE 17:28:45 55° ENE 17:32:32 10° N
Cosmos 2227 Rocket 2.1 17:23:41 10° NNW 17:29:23 75° ENE 17:35:01 10° SSE
Cosmos 2058 3.2 17:25:59 10° N 17:29:54 42° ENE 17:33:47 10° SSE
Cosmos 1892 2.7 17:27:24 10° N 17:31:16 60° E 17:35:06 10° SSE
CSL-04 Rocket 4.0 17:29:20 10° SE 17:34:34 45° ENE 17:39:47 10° N
Cosmos 2263 Rocket 3.6 17:30:37 10° N 17:34:40 19° NE 17:35:34 19° NE
Cosmos 1408 2.9 17:31:56 10° N 17:35:27 43° ENE 17:37:15 24° SE
BREEZE-M R/B 3.6 17:28:05 10° W 17:36:00 65° N 17:37:09 35° ENE
NOSS 3-4 (A) 4.5 17:34:41 10° NNW 17:40:54 36° NNE 17:44:11 25° E
NOSS 3-4 (C) 4.5 17:34:47 10° NNW 17:41:00 36° NNE 17:44:16 25° ENE
Meteor 2-1 Rocket 4.3 17:35:52 10° SSE 17:41:07 48° E 17:46:25 10° NNE
CZ-4C R/B 4.0 17:35:58 10° NNW 17:41:14 24° NNE 17:44:25 19° NE
Cosmos 1300 4.2 17:39:10 10° SW 17:42:44 37° WNW 17:46:20 10° N
Cosmos 2058 Rocket 3.5 17:41:29 10° SSW 17:45:57 66° W 17:50:27 10° N
Cosmos 1697 Rocket 2.9 17:40:54 10° S 17:46:12 45° ESE 17:49:37 21° NE
CZ-2D R/B 3.6 17:43:57 10° S 17:47:44 65° W 17:51:32 10° NNW
SeaSat 1 3.0 17:46:28 32° E 17:47:46 39° NE 17:52:21 10° NNW
SL-4 R/B 2.3 17:44:56 10° WNW 17:48:23 43° N 17:49:04 38° NE
Cosmos 1346 Rocket 2.6 17:46:12 10° N 17:50:13 74° E 17:54:07 10° SSE
NOSS 3-3 (A) 4.0 17:45:27 10° SSW 17:51:00 50° ESE 17:54:17 26° ENE
NOSS 3-3 (C) 4.1 17:45:33 10° SSW 17:51:07 50° ESE 17:54:24 26° ENE
CRYOSAT 2 4.4 17:47:23 10° NNE 17:52:10 55° E 17:56:56 10° S
USA 305 2.9 17:48:07 10° NW 17:52:25 64° NNE 17:53:27 47° E
Cosmos 1825 2.8 17:48:48 10° N 17:51:37 37° NE 17:51:37 37° NE
USA 215 3.8 17:51:39 26° ENE 17:54:49 43° NNE 18:00:55 10° NW
Cosmos 1709 Rocket 4.2 17:48:46 10° N 17:54:56 48° ENE 17:59:42 17° SE
Cosmos 44 4.2 17:50:40 10° WSW 17:55:00 43° NW 17:59:04 13° NNE
Cosmos 1315 Rocket 2.7 17:51:35 10° S 17:55:27 57° E 17:56:19 45° NE
SJ-11-01 4.2 17:53:43 15° SSE 17:57:28 65° ENE 18:02:07 10° N
USA 306 2.9 17:54:31 10° WNW 17:58:49 69° NNE 17:59:35 55° E
BREEZE-M R/B 3.7 17:58:11 10° WNW 18:02:19 74° NNE 18:05:18 36° E
ATLAS 2AS CENTAUR R/B 3.4 17:55:59 10° NW 18:03:04 39° NNE 18:05:17 32° ENE
Cosmos 968 Rocket 3.8 17:59:28 10° NNW 18:04:41 68° WSW 18:09:47 10° S
Cosmos 1340 4.4 18:01:32 10° NNW 18:04:58 34° W 18:08:24 10° SSW
COSMO-SKYMED 1 3.9 18:03:46 10° N 18:07:52 41° WNW 18:11:56 10° SW
MOS 1 Rocket 3.2 18:04:06 10° NNE 18:08:46 70° ESE 18:13:43 10° S
Cosmos 1980 Rocket 3.0 18:03:48 10° S 18:07:19 31° SE 18:07:19 31° SE
Cosmos 2297 Rocket 3.2 18:03:42 10° NW 18:09:07 47° WSW 18:14:30 10° S
Cosmos 1076 Rocket 3.3 18:05:55 10° N 18:10:12 84° E 18:11:35 42° SSE
Cosmos 883 Rocket 4.4 18:04:50 10° S 18:10:51 59° E 18:16:52 10° NNE
Cosmos 2315 Rocket 4.0 18:08:56 10° SSE 18:14:54 52° E 18:20:53 10° NNE
CSL-04 Debris 4.1 18:09:31 10° SSE 18:14:57 85° WSW 18:20:29 10° NNW
S3M 3.9 18:09:18 10° S 18:15:25 83° W 18:21:38 10° N
YAOGAN 1 3.6 18:18:40 10° S 18:22:50 46° W 18:27:01 10° NNW
Lacrosse 5 3.1 18:18:42 10° NW 18:23:05 28° N 18:23:30 28° NNE
Cosmos 2360 4.1 18:19:20 10° SSW 18:25:02 70° ESE 18:26:15 54° NE
Cosmos 1812 Rocket 3.6 18:25:55 10° SSW 18:30:20 77° W 18:30:36 73° NW
Cosmos 1455 2.9 18:27:29 10° SSW 18:31:09 51° WNW 18:31:14 51° WNW
CZ-2C R/B 4.1 18:27:19 10° S 18:32:55 49° W 18:38:24 10° NNW
Cosmos 1503 Rocket 4.4 18:29:50 10° NNW 18:34:59 63° WSW 18:37:11 34° S
Meteor 2-3 Rocket 4.4 18:30:45 10° N 18:34:43 40° NNE 18:34:43 40° NNE
Cosmos 44 Rocket 4.4 18:32:49 10° SSW 18:35:27 33° SSW 18:35:27 33° SSW
Cosmos 2278 4.1 18:32:40 10° SSW 18:36:46 47° S 18:36:46 47° S
USA 307 3.7 18:37:31 10° WNW 18:40:52 51° W 18:40:52 51° W
USA 308 3.9 18:42:21 10° WNW 18:45:31 45° W 18:45:31 45° W
Cosmos 2082 4.4 18:42:41 10° NW 18:48:14 51° WSW 18:50:45 30° SSW
ATLAS 5 CENTAUR R/B 4.3 18:52:47 10° NNW 18:55:01 13° N 18:55:01 13° N
ARGOS 3.7 18:54:41 35° SSW 18:56:45 55° W 19:02:06 10° NNW
Cosmos 2369 4.2 18:56:23 10° SW 19:02:02 59° WNW 19:03:11 49° NNW
CZ-4 R/B 4.5 19:02:16 10° WSW 19:04:08 13° W 19:05:59 10° WNW
Ariane Rocket 4.2 19:07:51 35° NNW 19:07:51 35° NNW 19:10:45 10° NNW
H-2A R/B 3.6 19:00:46 10° SSW 19:05:41 35° W 19:10:41 10° NNW
Cosmos 2263 Rocket 3.2 19:13:44 10° NNW 19:17:16 40° NNW 19:17:16 40° NNW
Atlas Centaur 2 4.4 19:14:28 10° SW 19:20:08 24° SSW 19:20:08 24° SSW
SeaSat 1 4.0 19:26:15 33° W 19:26:15 33° W 19:29:51 10° NW
Cosmos 1697 Rocket 4.1 19:25:15 10° WSW 19:30:19 33° NW 19:31:25 31° NNW
CZ-4C R/B 3.4 19:24:20 10° NW 19:29:36 48° N 19:29:36 48° N
NOSS 3-4 (A) 4.0 19:25:25 10° NW 19:31:39 69° WNW 19:31:39 69° WNW
NOSS 3-4 (C) 4.0 19:25:32 10° NW 19:31:43 69° WNW 19:31:43 69° WNW
USA 215 3.7 19:39:00 56° NW 19:39:00 56° NW 19:44:01 10° NW
Cosmos 1980 Rocket 4.4 19:47:37 10° WSW 19:49:11 18° WSW 19:49:11 18° WSW
ATLAS 2AS CENTAUR R/B 3.5 19:47:10 10° NW 19:52:43 51° WNW 19:52:43 51° WNW
